| time (UTC) | temp F | wind direction | speed knots | gust knots | rain 1hr in | rain 24hr in | rain mn in | humidity % | barometer mb |
| 20260505140507 | 48 | 255 | 4.3 | 12.2 | 0.00 | 0.00 | 0.00 | 45 | 1009.4 |
| 20260505125008 | 46 | 235 | 1.7 | 5.2 | 0.00 | 0.00 | 0.00 | 50 | 1009.3 |
| 20260505124512 | 46 | 266 | 1.7 | 5.2 | 0.00 | 0.00 | 0.00 | 49 | 1009.2 |
| 20260505124004 | 45 | 248 | 1.7 | 4.3 | 0.00 | 0.00 | 0.00 | 49 | 1009.2 |
| 20260505123508 | 45 | 239 | 1.7 | 6.1 | 0.00 | 0.00 | 0.00 | 47 | 1009.3 |
| 20260505123014 | 45 | 233 | 1.7 | 6.1 | 0.00 | 0.00 | 0.00 | 48 | 1009.4 |
| 20260505122504 | 45 | 238 | 2.6 | 5.2 | 0.00 | 0.00 | 0.00 | 52 | 1009.4 |
| 20260505122007 | 45 | 205 | 1.7 | 5.2 | 0.00 | 0.00 | 0.00 | 50 | 1009.5 |
| 20260505121528 | 45 | 233 | 2.6 | 5.2 | 0.00 | 0.00 | 0.00 | 49 | 1009.6 |
| 20260505121007 | 45 | 203 | 2.6 | 4.3 | 0.00 | 0.00 | 0.00 | 49 | 1009.3 |
| 20260505120504 | 45 | 211 | 1.7 | 4.3 | 0.00 | 0.00 | 0.00 | 52 | 1009.0 |
| 20260505120016 | 45 | 238 | 1.7 | 3.5 | 0.00 | 0.00 | 0.00 | 53 | 1008.7 |
| 20260505115507 | 44 | 250 | 1.7 | 3.5 | 0.00 | 0.00 | 0.00 | 53 | 1008.4 |
| 20260505115009 | 44 | 245 | 1.7 | 3.5 | 0.00 | 0.00 | 0.00 | 53 | 1008.0 |
| 20260505114512 | 44 | 248 | 0.9 | 3.5 | 0.00 | 0.00 | 0.00 | 56 | 1007.8 |
| 20260505114009 | 44 | 251 | 1.7 | 3.5 | 0.00 | 0.00 | 0.00 | 53 | 1007.8 |
| 20260505113509 | 44 | 257 | 0.9 | 1.7 | 0.00 | 0.00 | 0.00 | 53 | 1007.6 |
| 20260505113010 | 44 | 257 | 0.0 | 2.6 | 0.00 | 0.00 | 0.00 | 53 | 1007.4 |
| 20260505112507 | 44 | 249 | 0.9 | 2.6 | 0.00 | 0.00 | 0.00 | 54 | 1007.7 |
| 20260505112007 | 44 | 259 | 0.0 | 1.7 | 0.00 | 0.00 | 0.00 | 56 | 1007.7 |
| 20260505111516 | 44 | 259 | 0.0 | 1.7 | 0.00 | 0.00 | 0.00 | 55 | 1007.8 |
| 20260505111006 | 43 | 259 | 0.0 | 1.7 | 0.00 | 0.00 | 0.00 | 53 | 1008.0 |
| 20260505110508 | 43 | 262 | 0.0 | 2.6 | 0.00 | 0.00 | 0.00 | 53 | 1007.9 |
| 20260505102008 | 44 | 286 | 0.9 | 3.5 | 0.00 | 0.00 | 0.00 | 46 | 1007.4 |
| 20260505101513 | 44 | 307 | 0.9 | 3.5 | 0.00 | 0.00 | 0.00 | 46 | 1007.4 |
| 20260505101008 | 44 | 302 | 0.0 | 5.2 | 0.00 | 0.00 | 0.00 | 48 | 1007.3 |
| 20260505100507 | 44 | 307 | 0.9 | 5.2 | 0.00 | 0.00 | 0.00 | 46 | 1007.4 |
| 20260505100031 | 45 | 302 | 1.7 | 6.1 | 0.00 | 0.00 | 0.00 | 45 | 1007.3 |
| 20260505095508 | 45 | 292 | 0.9 | 6.1 | 0.00 | 0.00 | 0.00 | 45 | 1007.1 |
| 20260505095008 | 45 | 300 | 0.0 | 4.3 | 0.00 | 0.00 | 0.00 | 45 | 1007.0 |
| 20260505094519 | 45 | 308 | 1.7 | 5.2 | 0.00 | 0.00 | 0.00 | 43 | 1007.2 |
| 20260505094006 | 45 | 298 | 0.9 | 5.2 | 0.00 | 0.00 | 0.00 | 44 | 1007.3 |
| 20260505093507 | 45 | 298 | 1.7 | 6.1 | 0.00 | 0.00 | 0.00 | 43 | 1007.3 |
| 20260505093028 | 45 | 215 | 1.7 | 6.1 | 0.00 | 0.00 | 0.00 | 43 | 1007.4 |
| 20260505092505 | 45 | 301 | 1.7 | 4.3 | 0.00 | 0.00 | 0.00 | 43 | 1007.4 |
| 20260505092010 | 45 | 283 | 0.9 | 4.3 | 0.00 | 0.00 | 0.00 | 44 | 1007.5 |
| 20260505091518 | 46 | 295 | 0.0 | 7.0 | 0.00 | 0.00 | 0.00 | 44 | 1007.4 |
| 20260505091009 | 46 | 294 | 0.9 | 7.0 | 0.00 | 0.00 | 0.00 | 44 | 1007.2 |
| 20260505090504 | 46 | 255 | 0.9 | 5.2 | 0.00 | 0.00 | 0.00 | 44 | 1007.1 |
| 20260505090021 | 46 | 328 | 0.9 | 5.2 | 0.00 | 0.00 | 0.00 | 44 | 1006.8 |
| 20260505085507 | 46 | 293 | 0.9 | 5.2 | 0.00 | 0.00 | 0.00 | 45 | 1006.6 |
| 20260505085009 | 46 | 318 | 0.9 | 5.2 | 0.00 | 0.00 | 0.00 | 45 | 1006.5 |
| 20260505084522 | 46 | 13 | 0.9 | 4.3 | 0.00 | 0.00 | 0.00 | 44 | 1006.4 |
| 20260505084011 | 46 | 25 | 0.9 | 7.0 | 0.00 | 0.00 | 0.00 | 44 | 1006.4 |
| 20260505083519 | 46 | 301 | 1.7 | 7.0 | 0.00 | 0.00 | 0.00 | 44 | 1006.4 |
| 20260505083018 | 46 | 330 | 0.0 | 5.2 | 0.00 | 0.00 | 0.00 | 45 | 1006.3 |
| 20260505082506 | 46 | 324 | 0.9 | 6.1 | 0.00 | 0.00 | 0.00 | 45 | 1006.0 |
| 20260505082007 | 46 | 55 | 0.9 | 6.1 | 0.00 | 0.00 | 0.00 | 44 | 1005.8 |
| 20260505081523 | 46 | 59 | 0.9 | 3.5 | 0.00 | 0.00 | 0.00 | 45 | 1005.7 |
| 20260505081009 | 46 | 307 | 0.9 | 4.3 | 0.00 | 0.00 | 0.00 | 44 | 1005.5 |
| 20260505080508 | 46 | 270 | 0.0 | 5.2 | 0.00 | 0.00 | 0.00 | 45 | 1005.3 |
| 20260505080027 | 46 | 258 | 0.9 | 6.1 | 0.00 | 0.00 | 0.00 | 45 | 1005.2 |
| 20260505075504 | 47 | 338 | 0.9 | 6.1 | 0.00 | 0.00 | 0.00 | 45 | 1005.2 |
| 20260505075009 | 47 | 51 | 2.6 | 6.1 | 0.00 | 0.00 | 0.00 | 44 | 1005.0 |
| 20260505074526 | 47 | 46 | 0.9 | 5.2 | 0.00 | 0.00 | 0.00 | 45 | 1004.9 |
| 20260505074007 | 47 | 79 | 0.9 | 6.1 | 0.00 | 0.00 | 0.00 | 45 | 1004.9 |
| 20260505073505 | 48 | 23 | 1.7 | 6.1 | 0.00 | 0.00 | 0.00 | 46 | 1004.9 |
| 20260505073026 | 48 | 217 | 0.9 | 5.2 | 0.00 | 0.00 | 0.00 | 45 | 1005.1 |
| 20260505072508 | 48 | 49 | 0.9 | 7.8 | 0.00 | 0.00 | 0.00 | 47 | 1005.1 |
| 20260505072006 | 48 | 56 | 1.7 | 7.8 | 0.00 | 0.00 | 0.00 | 46 | 1005.0 |
| 20260505071530 | 48 | 293 | 0.0 | 4.3 | 0.00 | 0.00 | 0.00 | 46 | 1005.0 |
| 20260505071013 | 49 | 30 | 0.9 | 7.0 | 0.00 | 0.00 | 0.00 | 45 | 1005.1 |
| 20260505070511 | 49 | 353 | 0.9 | 7.0 | 0.00 | 0.00 | 0.00 | 45 | 1005.0 |
| 20260505070016 | 49 | 170 | 1.7 | 7.0 | 0.00 | 0.00 | 0.00 | 45 | 1004.8 |
| 20260505065510 | 50 | 81 | 1.7 | 5.2 | 0.00 | 0.00 | 0.00 | 45 | 1004.7 |
| 20260505065012 | 50 | 108 | 0.9 | 6.1 | 0.00 | 0.00 | 0.00 | 45 | 1004.5 |
| 20260505064523 | 50 | 150 | 1.7 | 6.1 | 0.00 | 0.00 | 0.00 | 47 | 1004.2 |
| 20260505064003 | 51 | 58 | 0.9 | 5.2 | 0.00 | 0.00 | 0.00 | 46 | 1004.0 |
| 20260505063504 | 51 | 4 | 0.0 | 4.3 | 0.00 | 0.00 | 0.00 | 45 | 1004.0 |
| 20260505063030 | 51 | 51 | 0.0 | 5.2 | 0.00 | 0.00 | 0.00 | 44 | 1003.9 |
| 20260505062508 | 51 | 300 | 0.0 | 7.8 | 0.00 | 0.00 | 0.00 | 43 | 1003.9 |
| 20260505062004 | 52 | 221 | 3.5 | 9.6 | 0.00 | 0.00 | 0.00 | 42 | 1003.9 |
| 20260505061507 | 52 | 309 | 1.7 | 9.6 | 0.00 | 0.00 | 0.00 | 42 | 1004.0 |
| 20260505061006 | 52 | 311 | 1.7 | 7.0 | 0.00 | 0.00 | 0.00 | 42 | 1004.0 |
| 20260505060507 | 52 | 108 | 1.7 | 7.0 | 0.00 | 0.00 | 0.00 | 42 | 1003.9 |
| 20260505060006 | 53 | 293 | 2.6 | 7.0 | 0.00 | 0.00 | 0.00 | 41 | 1003.9 |
| 20260505055506 | 53 | 290 | 1.7 | 7.8 | 0.00 | 0.00 | 0.00 | 44 | 1004.0 |
| 20260505055011 | 53 | 303 | 2.6 | 7.8 | 0.00 | 0.00 | 0.00 | 43 | 1004.0 |
| 20260505054504 | 53 | 318 | 1.7 | 6.1 | 0.00 | 0.00 | 0.00 | 43 | 1003.9 |
| 20260505054004 | 54 | 193 | 0.9 | 8.7 | 0.00 | 0.00 | 0.00 | 43 | 1003.8 |
| 20260505053507 | 54 | 274 | 2.6 | 8.7 | 0.00 | 0.00 | 0.00 | 42 | 1003.8 |
| 20260505053020 | 54 | 345 | 3.5 | 7.8 | 0.00 | 0.00 | 0.00 | 41 | 1003.6 |
| 20260505052504 | 54 | 314 | 3.5 | 13.0 | 0.00 | 0.00 | 0.00 | 41 | 1003.5 |
| 20260505052006 | 55 | 290 | 4.3 | 13.0 | 0.00 | 0.00 | 0.00 | 41 | 1003.2 |
| 20260505051533 | 55 | 309 | 3.5 | 12.2 | 0.00 | 0.00 | 0.00 | 40 | 1003.2 |
| 20260505051004 | 55 | 318 | 4.3 | 12.2 | 0.00 | 0.00 | 0.00 | 39 | 1003.0 |
| 20260505050504 | 56 | 268 | 3.5 | 12.2 | 0.00 | 0.00 | 0.00 | 38 | 1003.1 |
| 20260505041505 | 58 | 309 | 4.3 | 9.6 | 0.00 | 0.00 | 0.00 | 33 | 1001.9 |
| 20260505041007 | 58 | 236 | 4.3 | 7.8 | 0.00 | 0.00 | 0.00 | 31 | 1001.9 |
| 20260505040506 | 59 | 281 | 3.5 | 7.8 | 0.00 | 0.00 | 0.00 | 31 | 1001.9 |
| 20260505040024 | 59 | 278 | 2.6 | 7.0 | 0.00 | 0.00 | 0.00 | 30 | 1002.0 |
| 20260505035505 | 59 | 259 | 3.5 | 11.3 | 0.00 | 0.00 | 0.00 | 29 | 1002.1 |
| 20260505035007 | 59 | 294 | 3.5 | 11.3 | 0.00 | 0.00 | 0.00 | 28 | 1002.1 |
| 20260505034520 | 60 | 316 | 3.5 | 9.6 | 0.00 | 0.00 | 0.00 | 29 | 1002.2 |
| 20260505034003 | 60 | 264 | 4.3 | 10.4 | 0.00 | 0.00 | 0.00 | 29 | 1002.1 |
| 20260505033503 | 60 | 248 | 5.2 | 10.4 | 0.00 | 0.00 | 0.00 | 31 | 1002.1 |
| 20260505033018 | 60 | 236 | 2.6 | 7.8 | 0.00 | 0.00 | 0.00 | 33 | 1001.9 |
| 20260505032512 | 60 | 252 | 4.3 | 9.6 | 0.00 | 0.00 | 0.00 | 30 | 1001.8 |
| 20260505032005 | 60 | 200 | 3.5 | 9.6 | 0.00 | 0.00 | 0.00 | 30 | 1001.7 |
| 20260505031526 | 61 | 267 | 2.6 | 8.7 | 0.00 | 0.00 | 0.00 | 30 | 1001.4 |
| 20260505031008 | 61 | 238 | 4.3 | 8.7 | 0.00 | 0.00 | 0.00 | 28 | 1001.3 |
| 20260505030504 | 61 | 193 | 3.5 | 8.7 | 0.00 | 0.00 | 0.00 | 29 | 1001.2 |
| 20260505030012 | 61 | 276 | 3.5 | 8.7 | 0.00 | 0.00 | 0.00 | 28 | 1001.0 |
| 20260505025514 | 61 | 242 | 3.5 | 7.8 | 0.00 | 0.00 | 0.00 | 29 | 1000.9 |
| 20260505025010 | 62 | 231 | 3.5 | 10.4 | 0.00 | 0.00 | 0.00 | 29 | 1000.8 |
| 20260505024506 | 62 | 277 | 4.3 | 10.4 | 0.00 | 0.00 | 0.00 | 27 | 1000.5 |
| 20260505024006 | 62 | 315 | 4.3 | 8.7 | 0.00 | 0.00 | 0.00 | 28 | 1000.6 |
| 20260505023508 | 62 | 238 | 4.3 | 9.6 | 0.00 | 0.00 | 0.00 | 28 | 1000.7 |
| 20260505023024 | 62 | 250 | 4.3 | 9.6 | 0.00 | 0.00 | 0.00 | 28 | 1000.7 |
| 20260505022503 | 62 | 254 | 3.5 | 7.8 | 0.00 | 0.00 | 0.00 | 30 | 1000.8 |
| 20260505022007 | 63 | 264 | 2.6 | 8.7 | 0.00 | 0.00 | 0.00 | 29 | 1000.7 |
| 20260505021524 | 63 | 264 | 5.2 | 11.3 | 0.00 | 0.00 | 0.00 | 28 | 1000.6 |
| 20260505021004 | 63 | 263 | 4.3 | 11.3 | 0.00 | 0.00 | 0.00 | 27 | 1000.5 |
| 20260505020507 | 63 | 309 | 5.2 | 11.3 | 0.00 | 0.00 | 0.00 | 28 | 1000.4 |
| 20260505020019 | 64 | 333 | 5.2 | 11.3 | 0.00 | 0.00 | 0.00 | 29 | 1000.4 |
| 20260505015509 | 64 | 275 | 3.5 | 9.6 | 0.00 | 0.00 | 0.00 | 30 | 1000.2 |
| 20260505015005 | 64 | 200 | 3.5 | 9.6 | 0.00 | 0.00 | 0.00 | 31 | 1000.1 |
| 20260505014521 | 65 | 261 | 4.3 | 9.6 | 0.00 | 0.00 | 0.00 | 29 | 999.8 |
| 20260505014007 | 65 | 304 | 4.3 | 9.6 | 0.00 | 0.00 | 0.00 | 29 | 999.5 |
| 20260505013504 | 65 | 239 | 5.2 | 9.6 | 0.00 | 0.00 | 0.00 | 29 | 999.3 |
| 20260505013024 | 65 | 275 | 5.2 | 9.6 | 0.00 | 0.00 | 0.00 | 31 | 999.1 |
| 20260505012507 | 66 | 15 | 4.3 | 9.6 | 0.00 | 0.00 | 0.00 | 32 | 998.8 |
| 20260505012010 | 66 | 321 | 3.5 | 9.6 | 0.00 | 0.00 | 0.00 | 32 | 998.6 |
| 20260505011513 | 67 | 313 | 2.6 | 7.8 | 0.00 | 0.00 | 0.00 | 32 | 998.4 |
| 20260505011009 | 67 | 259 | 0.9 | 8.7 | 0.00 | 0.00 | 0.00 | 33 | 998.2 |
| 20260505010506 | 68 | 286 | 2.6 | 8.7 | 0.00 | 0.00 | 0.00 | 33 | 998.2 |
| 20260505010014 | 68 | 306 | 1.7 | 9.6 | 0.00 | 0.00 | 0.00 | 33 | 998.1 |
| 20260505005507 | 68 | 274 | 4.3 | 9.6 | 0.00 | 0.00 | 0.00 | 32 | 998.1 |
| 20260505005008 | 69 | 304 | 1.7 | 7.0 | 0.00 | 0.00 | 0.00 | 33 | 997.9 |
| 20260505004526 | 69 | 331 | 2.6 | 11.3 | 0.00 | 0.00 | 0.00 | 32 | 997.6 |
| 20260505004007 | 69 | 285 | 3.5 | 11.3 | 0.00 | 0.00 | 0.00 | 32 | 997.5 |
| 20260505003510 | 70 | 297 | 4.3 | 15.6 | 0.00 | 0.00 | 0.00 | 31 | 997.3 |
| 20260505003029 | 70 | 280 | 5.2 | 15.6 | 0.00 | 0.00 | 0.00 | 30 | 997.2 |
| 20260505002511 | 71 | 288 | 3.5 | 14.8 | 0.00 | 0.00 | 0.00 | 30 | 997.1 |
| 20260505002007 | 71 | 265 | 6.1 | 15.6 | 0.00 | 0.00 | 0.00 | 30 | 997.1 |
| 20260505001521 | 72 | 284 | 3.5 | 15.6 | 0.00 | 0.00 | 0.00 | 31 | 997.2 |
| 20260505001010 | 72 | 288 | 6.1 | 13.9 | 0.00 | 0.00 | 0.00 | 30 | 997.2 |
| 20260505000507 | 73 | 290 | 6.1 | 13.9 | 0.00 | 0.00 | 0.00 | 29 | 997.1 |
| 20260505000020 | 74 | 269 | 1.7 | 9.6 | 0.00 | 0.00 | 0.00 | 31 | 996.9 |
| 20260504235506 | 75 | 304 | 6.1 | 9.6 | 0.00 | 0.00 | 0.00 | 29 | 996.8 |
| 20260504235008 | 76 | 308 | 4.3 | 8.7 | 0.00 | 0.00 | 0.00 | 27 | 996.7 |
| 20260504234518 | 76 | 286 | 3.5 | 7.8 | 0.00 | 0.00 | 0.00 | 27 | 996.6 |
| 20260504234010 | 76 | 245 | 3.5 | 7.8 | 0.00 | 0.00 | 0.00 | 27 | 996.4 |
| 20260504233512 | 76 | 244 | 3.5 | 7.8 | 0.00 | 0.00 | 0.00 | 26 | 996.5 |
| 20260504233012 | 76 | 237 | 4.3 | 10.4 | 0.00 | 0.00 | 0.00 | 27 | 996.4 |
| 20260504232510 | 76 | 202 | 5.2 | 10.4 | 0.00 | 0.00 | 0.00 | 26 | 996.4 |
| 20260504232011 | 76 | 241 | 4.3 | 9.6 | 0.00 | 0.00 | 0.00 | 27 | 996.5 |
| 20260504231529 | 76 | 226 | 4.3 | 9.6 | 0.00 | 0.00 | 0.00 | 26 | 996.5 |
| 20260504231007 | 76 | 244 | 6.1 | 9.6 | 0.00 | 0.00 | 0.00 | 26 | 996.5 |
| 20260504230508 | 76 | 220 | 5.2 | 13.0 | 0.00 | 0.00 | 0.00 | 27 | 996.5 |
| 20260504230025 | 76 | 299 | 7.0 | 13.0 | 0.00 | 0.00 | 0.00 | 25 | 996.6 |
| 20260504225506 | 76 | 203 | 6.1 | 12.2 | 0.00 | 0.00 | 0.00 | 27 | 996.6 |
| 20260504225006 | 76 | 245 | 7.0 | 13.9 | 0.00 | 0.00 | 0.00 | 25 | 996.6 |
| 20260504224531 | 76 | 266 | 8.7 | 13.9 | 0.00 | 0.00 | 0.00 | 25 | 996.6 |
| 20260504224007 | 77 | 201 | 7.8 | 11.3 | 0.00 | 0.00 | 0.00 | 25 | 996.9 |
| 20260504223509 | 76 | 210 | 5.2 | 13.9 | 0.00 | 0.00 | 0.00 | 27 | 996.7 |
| 20260504223025 | 76 | 210 | 7.8 | 13.9 | 0.00 | 0.00 | 0.00 | 26 | 996.7 |
| 20260504222510 | 76 | 234 | 5.2 | 10.4 | 0.00 | 0.00 | 0.00 | 27 | 996.7 |
| 20260504222009 | 76 | 205 | 5.2 | 11.3 | 0.00 | 0.00 | 0.00 | 27 | 996.7 |
| 20260504221519 | 77 | 200 | 6.1 | 14.8 | 0.00 | 0.00 | 0.00 | 26 | 996.7 |
| 20260504221010 | 76 | 214 | 7.0 | 14.8 | 0.00 | 0.00 | 0.00 | 26 | 996.7 |
| 20260504220512 | 76 | 202 | 5.2 | 13.0 | 0.00 | 0.00 | 0.00 | 27 | 996.8 |
| 20260504220017 | 76 | 235 | 7.0 | 12.2 | 0.00 | 0.00 | 0.00 | 27 | 996.8 |
| 20260504215510 | 76 | 191 | 6.1 | 12.2 | 0.00 | 0.00 | 0.00 | 27 | 996.8 |
| 20260504215007 | 76 | 266 | 7.0 | 13.9 | 0.00 | 0.00 | 0.00 | 27 | 996.8 |
| 20260504214538 | 76 | 226 | 8.7 | 13.9 | 0.00 | 0.00 | 0.00 | 27 | 996.9 |
| 20260504214009 | 76 | 218 | 6.1 | 13.9 | 0.00 | 0.00 | 0.00 | 28 | 996.9 |
| 20260504213503 | 76 | 203 | 7.0 | 15.6 | 0.00 | 0.00 | 0.00 | 26 | 996.8 |
| 20260504213010 | 76 | 200 | 7.8 | 15.6 | 0.00 | 0.00 | 0.00 | 25 | 996.9 |
| 20260504212507 | 76 | 207 | 7.0 | 14.8 | 0.00 | 0.00 | 0.00 | 26 | 997.1 |
| 20260504212003 | 76 | 203 | 8.7 | 14.8 | 0.00 | 0.00 | 0.00 | 24 | 997.1 |
| 20260504211506 | 76 | 211 | 6.1 | 13.0 | 0.00 | 0.00 | 0.00 | 25 | 997.3 |
| 20260504211006 | 77 | 226 | 7.8 | 13.0 | 0.00 | 0.00 | 0.00 | 24 | 997.2 |
| 20260504210512 | 77 | 236 | 6.1 | 12.2 | 0.00 | 0.00 | 0.00 | 25 | 997.4 |
| 20260504210009 | 76 | 216 | 6.1 | 15.6 | 0.00 | 0.00 | 0.00 | 25 | 997.4 |
| 20260504205504 | 76 | 242 | 7.0 | 15.6 | 0.00 | 0.00 | 0.00 | 25 | 997.4 |
| 20260504205007 | 76 | 236 | 6.1 | 16.5 | 0.00 | 0.00 | 0.00 | 26 | 997.4 |
| 20260504204510 | 76 | 247 | 6.1 | 16.5 | 0.00 | 0.00 | 0.00 | 25 | 997.4 |
| 20260504204004 | 76 | 252 | 9.6 | 15.6 | 0.00 | 0.00 | 0.00 | 25 | 997.5 |
| 20260504203506 | 76 | 246 | 7.0 | 13.9 | 0.00 | 0.00 | 0.00 | 26 | 997.5 |
| 20260504203022 | 76 | 217 | 7.8 | 13.9 | 0.00 | 0.00 | 0.00 | 25 | 997.5 |
| 20260504202506 | 76 | 217 | 6.1 | 11.3 | 0.00 | 0.00 | 0.00 | 26 | 997.6 |
| 20260504202006 | 76 | 244 | 5.2 | 12.2 | 0.00 | 0.00 | 0.00 | 25 | 997.6 |
| 20260504201516 | 76 | 263 | 6.1 | 12.2 | 0.00 | 0.00 | 0.00 | 27 | 997.7 |
| 20260504201008 | 76 | 190 | 7.8 | 17.4 | 0.00 | 0.00 | 0.00 | 26 | 997.7 |
| 20260504200504 | 75 | 200 | 7.0 | 17.4 | 0.00 | 0.00 | 0.00 | 27 | 997.8 |
| 20260504200019 | 76 | 218 | 11.3 | 17.4 | 0.00 | 0.00 | 0.00 | 25 | 997.8 |
| 20260504195506 | 76 | 209 | 7.8 | 16.5 | 0.00 | 0.00 | 0.00 | 25 | 997.9 |
| 20260504195007 | 75 | 265 | 7.8 | 13.9 | 0.00 | 0.00 | 0.00 | 27 | 998.1 |
| 20260504194512 | 75 | 205 | 7.8 | 13.9 | 0.00 | 0.00 | 0.00 | 26 | 998.1 |
| 20260504194007 | 75 | 226 | 10.4 | 13.9 | 0.00 | 0.00 | 0.00 | 26 | 998.1 |
| 20260504193511 | 75 | 191 | 7.0 | 12.2 | 0.00 | 0.00 | 0.00 | 28 | 998.1 |
| 20260504193008 | 75 | 211 | 4.3 | 14.8 | 0.00 | 0.00 | 0.00 | 26 | 998.1 |
| 20260504192506 | 75 | 203 | 7.0 | 14.8 | 0.00 | 0.00 | 0.00 | 27 | 998.1 |
| 20260504192010 | 75 | 203 | 7.0 | 14.8 | 0.00 | 0.00 | 0.00 | 26 | 998.2 |
| 20260504191507 | 74 | 198 | 9.6 | 16.5 | 0.00 | 0.00 | 0.00 | 25 | 998.2 |
| 20260504191004 | 74 | 139 | 9.6 | 18.2 | 0.00 | 0.00 | 0.00 | 25 | 998.2 |
| 20260504190515 | 74 | 216 | 7.8 | 18.2 | 0.00 | 0.00 | 0.00 | 24 | 998.2 |
| 20260504190028 | 74 | 243 | 7.8 | 18.2 | 0.00 | 0.00 | 0.00 | 25 | 998.2 |
| 20260504185503 | 74 | 239 | 8.7 | 17.4 | 0.00 | 0.00 | 0.00 | 25 | 998.2 |
| 20260504185007 | 74 | 195 | 8.7 | 17.4 | 0.00 | 0.00 | 0.00 | 25 | 998.3 |
| 20260504184531 | 74 | 207 | 7.8 | 15.6 | 0.00 | 0.00 | 0.00 | 25 | 998.4 |
| 20260504184004 | 74 | 206 | 8.7 | 13.9 | 0.00 | 0.00 | 0.00 | 26 | 998.4 |
| 20260504183510 | 74 | 210 | 9.6 | 13.0 | 0.00 | 0.00 | 0.00 | 24 | 998.4 |
| 20260504183025 | 74 | 196 | 8.7 | 14.8 | 0.00 | 0.00 | 0.00 | 25 | 998.3 |
| 20260504182507 | 74 | 220 | 7.0 | 14.8 | 0.00 | 0.00 | 0.00 | 27 | 998.3 |
| 20260504182006 | 73 | 223 | 7.0 | 13.9 | 0.00 | 0.00 | 0.00 | 25 | 998.3 |
| 20260504181513 | 73 | 191 | 4.3 | 12.2 | 0.00 | 0.00 | 0.00 | 26 | 998.4 |
| 20260504181010 | 73 | 188 | 7.8 | 14.8 | 0.00 | 0.00 | 0.00 | 25 | 998.3 |
| 20260504180504 | 73 | 222 | 7.8 | 14.8 | 0.00 | 0.00 | 0.00 | 24 | 998.3 |
| 20260504180012 | 73 | 180 | 7.0 | 14.8 | 0.00 | 0.00 | 0.00 | 24 | 998.4 |
| 20260504175507 | 73 | 224 | 8.7 | 14.8 | 0.00 | 0.00 | 0.00 | 25 | 998.3 |
| 20260504175011 | 73 | 193 | 10.4 | 15.6 | 0.00 | 0.00 | 0.00 | 24 | 998.4 |
| 20260504174508 | 73 | 279 | 9.6 | 15.6 | 0.00 | 0.00 | 0.00 | 25 | 998.5 |
| 20260504174007 | 73 | 211 | 8.7 | 13.9 | 0.00 | 0.00 | 0.00 | 25 | 998.6 |
| 20260504173510 | 73 | 173 | 9.6 | 13.9 | 0.00 | 0.00 | 0.00 | 24 | 998.8 |
| 20260504173026 | 73 | 272 | 5.2 | 12.2 | 0.00 | 0.00 | 0.00 | 25 | 998.8 |
| 20260504172507 | 73 | 242 | 7.8 | 14.8 | 0.00 | 0.00 | 0.00 | 25 | 998.9 |
| 20260504172012 | 73 | 229 | 8.7 | 18.2 | 0.00 | 0.00 | 0.00 | 24 | 998.9 |
| 20260504171525 | 73 | 208 | 9.6 | 18.2 | 0.00 | 0.00 | 0.00 | 24 | 999.1 |
| 20260504171008 | 73 | 221 | 5.2 | 19.1 | 0.00 | 0.00 | 0.00 | 26 | 999.1 |
| 20260504170507 | 72 | 264 | 9.6 | 19.1 | 0.00 | 0.00 | 0.00 | 25 | 999.2 |
| 20260504151010 | 67 | 214 | 5.2 | 11.3 | 0.00 | 0.00 | 0.00 | 33 | 1000.8 |
| 20260504150510 | 66 | 268 | 7.8 | 11.3 | 0.00 | 0.00 | 0.00 | 31 | 1000.8 |